カタログに戻る

COSMOS 1130

運用中軍事LEO
NORAD 11538·PAYLOAD·🇷🇺 Russia

打ち上げ Sep 25, 1979 から Plesetsk Cosmodrome

Loading…

次のパス (今後24時間)

TLE

最新Source: Space-Track

元期: Sep 14, 2026, 11:51 UTC

1 11538U 79084A   26257.49412133 -.00000002  00000-0  87020-4 0  9999
2 11538  74.0242 299.5298 0053603 310.8659 116.0011 12.56272458154037

AllMySatでCOSMOS 1130をリアルタイム追跡

Download on the App Store